Regional Weather Roundup
Issued by NWS

Home | Current Version | Previous Version | Text Only | Print | Product List | Glossary Off
Versions: 1 2 3 4 5 6 7 8 9 10 11 12 13 14 15 16 17 18 19 20 21 22 23 24 25 26 27 28 29 30 31 32 33 34 35 36 37 38 39 40 41 42 43 44 45 46 47 48 49 50

000
ASUS45 KBOU 160907
RWRCO

WEATHER ROUNDUP FOR COLORADO
NATIONAL WEATHER SERVICE DENVER/BOULDER CO
300 AM MDT TUE SEP 16 2014

NOTE: "FAIR" INDICATES FEW OR NO CLOUDS BELOW 12000 FEET WITH NO
SIGNIFICANT WEATHER AND/OR OBSTRUCTIONS TO VISIBILITY.

COZ001>005-013-030-031-161000-
...NORTHWEST COLORADO...

CITY           SKY/WX    TMP DP  RH WIND       PRES   REMARKS
CRAIG          CLEAR     41  38  89 CALM      30.30R
HAYDEN         CLEAR     50  36  57 E10       30.31R
MEEKER         CLEAR     46  39  76 CALM      30.32R
MOUNT WERNER   NOT AVBL
STEAMBOAT SPGS CLEAR     46  38  73 CALM      30.34S
WALDEN         CLEAR     37  32  81 SE8       30.40S
$$

COZ006>008-011-161000-
...WEST CENTRAL VALLEYS...

CITY           SKY/WX    TMP DP  RH WIND       PRES   REMARKS
GRAND JUNCTION CLEAR     61  41  47 SE7       30.18S
MONTROSE       CLEAR     57  40  52 S6        30.28R
EAGLE          CLEAR     46  39  76 CALM      30.38R
RIFLE          CLEAR     51  41  68 E6        30.27R
DELTA          CLEAR     58  41  54 NE7       30.23S
NUCLA          CLEAR     59  37  44 NE8       30.32R
$$

COZ017>023-064>068-161000-
...SOUTHWEST COLORADO...

CITY           SKY/WX    TMP DP  RH WIND       PRES   REMARKS
DURANGO        CLEAR     55  41  59 NE7       30.37S
CORTEZ         PTCLDY    62  46  55 SW10      30.31R
PAGOSA SPRINGS MOCLDY    54  39  57 CALM      30.45F
TELLURIDE      NOT AVBL
WOLF CREEK PAS PTCLDY    41  37  87 SW21      30.68F
$$

COZ009-010-012-014-032>034-037-058>063-161000-
...CENTRAL COLORADO...

CITY           SKY/WX    TMP DP  RH WIND       PRES   REMARKS
ASPEN          CLEAR     45  35  68 SW7       30.40S
BUENA VISTA    CLEAR     45  38  76 NW6       30.45S
COPPER MTN     CLEAR     46  27  46 SW14      30.67F
BERTHOUD PASS  FAIR      37  37 100 W20       30.68F
COTTONWOOD PAS CLEAR     52  36  54 CALM      30.54F
GUNNISON       PTCLDY    46  34  61 CALM      30.45S
KREMMLING      CLEAR     37  34  87 CALM      30.41S
LEADVILLE      CLEAR     36  34  92 E3        30.54F
MONARCH PASS   CLEAR     43  32  65 SW14      30.77F
SALIDA         CLEAR     52  43  72 NW10      30.49S
SUNLIGHT       CLEAR     54  30  40 CALM      30.61S
WILKERSON PASS NOT AVBL
$$

COZ069>075-161000-
...SAN LUIS VALLEY/SANGRE DE CRISTO MOUNTAINS...

CITY           SKY/WX    TMP DP  RH WIND       PRES   REMARKS
ALAMOSA        CLEAR     46  41  82 S7        30.41S
LA VETA PASS   NOT AVBL
SAGUACHE       NOT AVBL
$$

COZ035-036-038>040-161000-
...NORTHERN COLORADO FRONT RANGE...

CITY           SKY/WX    TMP DP  RH WIND       PRES   REMARKS
DENVER INTL AP CLEAR     54  47  77 W5        30.20F
DMNS CITY PARK   N/A     51  49  92 SE2       30.20S
AURORA         CLEAR     56  47  71 SW10      30.22S
FRONT RANGE AP CLEAR     54  48  82 W5        30.20F
ERIE MUNI ARPT CLEAR     47  46  93 CALM      30.20F
BOULDER MUN AP CLEAR     52  46  82 CALM      30.20F
CENTENNIAL     CLEAR     54  48  80 S12       30.23F
BROOMFIELD     CLEAR     59  45  58 CALM      30.22S
FORT COLLINS   CLEAR     52  46  82 CALM      30.20F
LONGMONT       CLEAR     48  45  90 CALM      30.21F FOG
$$

COZ041-046-047-076>085-087-088-161000-
...PIKES PEAK/PALMER DIVIDE AND SOUTHERN FOOTHILLS...

CITY           SKY/WX    TMP DP  RH WIND       PRES   REMARKS
COLO. SPRINGS  CLOUDY    53  50  89 CALM      30.32F FOG
A. F. ACADEMY  CLOUDY    51  50  94 CALM      30.32F
ELLICOTT       NOT AVBL
FALCON         FOG       50  50  99 SW7       30.34F VSB 3/4
FORT CARSON    CLOUDY    54  54 100 SE2       30.29F
LIMON          CLOUDY    53  51  93 S16       30.26F
MONUMENT HILL  CLEAR     48  45  87 SW9       30.31F
TRINIDAD       CLEAR     51  50  96 NW3       30.30F FOG
$$

COZ042>045-048>051-090-091-161000-
...NORTHEAST COLORADO...

CITY           SKY/WX    TMP DP  RH WIND       PRES   REMARKS
GREELEY ARPT   CLEAR     46  39  76 NW5       30.19S
AKRON          CLEAR     52  50  93 S16G25    30.17F
BURLINGTON     CLEAR     55  50  83 S12       30.23F
WRAY           MOCLDY    52  52  99 CALM      30.20F
STERLING       CLEAR     52  52 100 S6        30.14F
HOLYOKE        MOCLDY    54  50  87 SE8       30.18F
FORT MORGAN    CLEAR     50  48  95 SW7       30.17F
$$

COZ086-089-092>099-161000-
...SOUTHEAST COLORADO...

CITY           SKY/WX    TMP DP  RH WIND       PRES   REMARKS
PUEBLO         CLOUDY    54  52  93 CALM      30.27F
LA JUNTA       CLOUDY    59  52  77 S7        30.26F
LAMAR          CLOUDY    59  53  80 S7        30.23F
SPRINGFIELD      N/A     56  53  90 S7        30.27F
$$


USA.gov is the U.S. government's official web portal to all federal, state and local government web resources and services.